[[{"header":{"parameterUnit":"m.s-1","parameterCategory":1,"la1":30.2991,"la2":30.254,"lo1":-89.0895,"lo2":-89.0444,"dy":0.0017,"dx":0.0017,"nx":28,"ny":28,"refTime":"2024-07-18T03:00:00:Z","depth":0,"parameterNumber":2,"parameterNumberName":"U-component_of_WINDS"},"data":[0,0,0,0,0,0,0,0,0,0,0,0,0,0,0,0,0,0,0,0,0,0,0,0,0,0,0,0,0,0,0,0,0,0,0,0,0,0,0,0,0,0,0,0,0,0,0,0,0,0,0,0,0,0,0,0,0,0,0.4602,0.4604,0,0.474,0.4742,0.4743,0.4799,0.4799,0.4799,0.4798,0.4942,0.4946,0.4951,0,0,0,0,0,0,0,0,0,0,0,0,0,0.439,0.4393,0.4602,0.4604,0.4606,0.474,0.4742,0.4744,0.4799,0.4799,0.4798,0.4798,0.4941,0.4946,0.4951,0,0,0,0,0,0,0,0,0,0,0,0,0,0.45,0.4394,0.4602,0.4649,0.4655,0.474,0.4742,0.4744,0.4799,0.4799,0.4798,0.4798,0.4939,0.4945,0.4952,0.5,0,0,0.4971,0.4973,0,0,0,0,0,0,0,0,0.4494,0.4508,0.4641,0.4646,0.4653,0.4752,0.472,0.483,0.4799,0.4745,0.4798,0.4798,0.488,0.4891,0.4918,0.5007,0.5013,0.4971,0.4975,0.4978,0.4979,0,0,0,0,0,0,0,0.4486,0.4502,0.4657,0.4643,0.465,0.4665,0.468,0.4741,0.4813,0.4749,0.4754,0.4769,0.4883,0.4912,0.4922,0.5015,0.4971,0.4977,0.498,0.4983,0.5152,0.5152,0,0,0,0,0,0,0.447,0.4496,0.4653,0.4661,0.457,0.4669,0.4686,0.4721,0.4813,0.4826,0.4769,0.4771,0.4901,0.4914,0.4927,0.499,0.4978,0.4983,0.4987,0.5151,0.5152,0.5153,0,0,0,0,0,0,0.4465,0.4484,0.4647,0.458,0.4601,0.4673,0.4712,0.4724,0.4753,0.4828,0.4841,0.4785,0.4901,0.4918,0.4981,0.4996,0.4986,0.4992,0.515,0.5151,0.5152,0.5116,0,0,0,0,0,0,0.4459,0.4482,0.45,0.458,0.4605,0.4698,0.4713,0.4727,0.4763,0.4766,0.4847,0.4859,0.4902,0.4972,0.4988,0.5004,0.4997,0.5149,0.5151,0.5152,0.5117,0.5116,0.5116,0,0,0,0,0,0.4451,0.4485,0.4501,0.4519,0.4629,0.4699,0.4713,0.4761,0.4764,0.4783,0.4832,0.4857,0.4992,0.4978,0.4996,0.5015,0.5148,0.515,0.5152,0.5117,0.5116,0.5116,0,0,0,0,0,0,0.4406,0.4496,0.4515,0.4575,0.4629,0.4708,0.4734,0.4759,0.4814,0.4815,0.4874,0.4891,0.495,0.4989,0.4972,0.5067,0.5072,0.5077,0.5039,0.5039,0.5039,0.5028,0.5002,0,0,0,0,0,0.4403,0.4451,0.4528,0.4573,0.4599,0.4662,0.4694,0.4726,0.4785,0.4808,0.4861,0.4918,0.4973,0.5008,0.5063,0.5123,0.5141,0.5145,0.5144,0.5143,0.5147,0.5182,0.5185,0.5158,0.5158,0.5158,0,0,0.4397,0.4452,0.4479,0.4566,0.4611,0.4661,0.4681,0.4732,0.477,0.4816,0.4879,0.492,0.4987,0.5048,0.5078,0.5083,0.5159,0.5145,0.5144,0.5149,0.5184,0.5187,0.5189,0.5159,0.5159,0.5159,0,0,0.4412,0.4458,0.4502,0.4547,0.4615,0.4657,0.4667,0.4743,0.4772,0.4835,0.4871,0.4918,0.5011,0.5058,0.5094,0.5126,0.5152,0.5143,0.5141,0.5174,0.5176,0.5178,0.519,0.5194,0.5146,0.5146,0.5146,0,0.4397,0.4472,0.4521,0.4571,0.4608,0.4651,0.4696,0.4738,0.4821,0.4846,0.485,0.4969,0.5017,0.509,0.5098,0.5125,0.514,0.5134,0.5171,0.5174,0.5177,0.5189,0.5193,0.5145,0.5145,0.5145,0.5145,0,0.4449,0.4501,0.4528,0.4606,0.4647,0.4694,0.4751,0.4786,0.4815,0.4856,0.4921,0.498,0.5048,0.5068,0.5097,0.5146,0.5146,0.516,0.5166,0.5177,0.5189,0.5194,0.5143,0.5143,0.5144,0.5144,0,0,0.444,0.4545,0.4554,0.459,0.4669,0.471,0.476,0.4825,0.4854,0.491,0.4954,0.5032,0.5045,0.5086,0.512,0.5149,0.5172,0.516,0.5162,0.516,0.523,0.5219,0.5224,0.5189,0.519,0.5191,0.5224,0,0.4465,0.4555,0.4601,0.4671,0.4719,0.4762,0.4805,0.4858,0.4898,0.4946,0.4991,0.5045,0.5058,0.5083,0.5114,0.5162,0.5187,0.5161,0.5231,0.5233,0.5213,0.523,0.5219,0.5248,0.5229,0.523,0.5231,0,0.4507,0.4562,0.4636,0.471,0.4732,0.477,0.4834,0.4879,0.4941,0.4968,0.5013,0.5047,0.5102,0.5103,0.518,0.5161,0.5193,0.5221,0.5223,0.5232,0.5232,0.524,0.5258,0.5262,0.5239,0.5238,0.5238,0,0.4493,0.4586,0.4642,0.4672,0.4759,0.4784,0.4822,0.4883,0.492,0.4976,0.5001,0.5063,0.5097,0.5145,0.5195,0.5191,0.5266,0.5272,0.5291,0.529,0.5305,0.5304,0.5329,0.5325,0.5325,0.5325,0.5325,0,0.4517,0.4561,0.4637,0.4672,0.4723,0.4776,0.4825,0.4866,0.492,0.4964,0.5005,0.5046,0.5109,0.5158,0.5198,0.5255,0.527,0.5295,0.5305,0.5291,0.5288,0.5313,0.5312,0.5326,0.5326,0.5325,0.5325,0,0.451,0.4562,0.4627,0.4704,0.4724,0.4758,0.4825,0.4861,0.4903,0.4958,0.4974,0.504,0.51,0.5155,0.5235,0.5261,0.532,0.5332,0.5299,0.5304,0.532,0.5318,0.5362,0.5371,0.536,0.536,0.536,0,0.4522,0.4557,0.4637,0.4669,0.4706,0.4757,0.4795,0.4849,0.4886,0.4959,0.4986,0.5049,0.5102,0.5196,0.5251,0.5313,0.5328,0.5339,0.5337,0.5322,0.5328,0.5326,0.533,0.5338,0.5338,0.5338,0.5338,0,0.4538,0.4562,0.4614,0.4675,0.4719,0.4769,0.4822,0.4846,0.491,0.495,0.5011,0.5052,0.5133,0.5195,0.5263,0.5303,0.5331,0.5338,0.5346,0.5332,0.5311,0.5323,0.5297,0.5337,0.5337,0.5337,0.5337,0.5337,0.4541,0.4574,0.4636,0.4693,0.4738,0.4786,0.4823,0.487,0.4921,0.4991,0.502,0.5082,0.5144,0.5237,0.5277,0.5327,0.5333,0.5344,0.5347,0.5349,0.5346,0.5303,0.5339,0.534,0.534,0.534,0.534,0,0.4559,0.4601,0.4653,0.4725,0.4769,0.4791,0.4851,0.4887,0.4941,0.4995,0.5046,0.5117,0.5177,0.5238,0.5301,0.533,0.5345,0.5345,0.5343,0.5352,0.5337,0.5324,0.5332,0.5332,0.5332,0.5332,0.5332,0.5332,0.4574,0.4631,0.4663,0.4743,0.4785,0.4846,0.4878,0.4922,0.4966,0.5043,0.5093,0.5132,0.5189,0.5257,0.5314,0.533,0.5352,0.5348,0.5368,0.5353,0.5353,0.5353,0.5342,0.5353,0.5353,0.5379,0.538,0.538]},{"header":{"parameterUnit":"m.s-1","parameterCategory":1,"la1":30.2991,"la2":30.254,"lo1":-89.0895,"lo2":-89.0444,"dy":0.0017,"dx":0.0017,"nx":28,"ny":28,"refTime":"2024-07-18T03:00:00:Z","depth":0,"parameterNumber":3,"parameterNumberName":"V-component_of_WINDS"},"data":[0,0,0,0,0,0,0,0,0,0,0,0,0,0,0,0,0,0,0,0,0,0,0,0,0,0,0,0,0,0,0,0,0,0,0,0,0,0,0,0,0,0,0,0,0,0,0,0,0,0,0,0,0,0,0,0,0,0,4.1084,4.1084,0,4.1086,4.1086,4.1086,4.1042,4.1041,4.104,4.1039,4.1039,4.104,4.1041,0,0,0,0,0,0,0,0,0,0,0,0,0,4.1039,4.104,4.1084,4.1084,4.1084,4.1086,4.1086,4.1086,4.1042,4.1041,4.104,4.1038,4.1038,4.104,4.1041,0,0,0,0,0,0,0,0,0,0,0,0,0,4.1051,4.104,4.1084,4.1063,4.1061,4.1086,4.1086,4.1086,4.1043,4.1041,4.1039,4.1038,4.1038,4.104,4.1041,4.1086,0,0,4.1046,4.1047,0,0,0,0,0,0,0,0,4.105,4.1053,4.1066,4.1064,4.1062,4.1062,4.107,4.1086,4.1043,4.105,4.1039,4.1037,4.1048,4.1048,4.1053,4.1086,4.1086,4.1046,4.1047,4.1048,4.1048,0,0,0,0,0,0,0,4.105,4.1052,4.1084,4.1066,4.1064,4.1051,4.1051,4.1072,4.1058,4.1049,4.1046,4.1047,4.1046,4.1051,4.1052,4.1086,4.1046,4.1048,4.1049,4.1049,4.1151,4.1152,0,0,0,0,0,0,4.1052,4.1052,4.1084,4.1084,4.1052,4.1054,4.1054,4.1064,4.1058,4.1055,4.1048,4.1045,4.1049,4.105,4.1052,4.11,4.1048,4.1049,4.105,4.1149,4.1151,4.1153,0,0,0,0,0,0,4.1051,4.1055,4.1084,4.1067,4.107,4.1056,4.1068,4.1065,4.1069,4.1057,4.1054,4.1056,4.1048,4.105,4.1077,4.11,4.105,4.1052,4.1147,4.115,4.1152,4.12,0,0,0,0,0,0,4.105,4.1055,4.1073,4.1068,4.1071,4.1111,4.107,4.1066,4.1072,4.1068,4.1064,4.1061,4.1047,4.1075,4.1078,4.1101,4.1053,4.1145,4.1148,4.1151,4.1196,4.1203,4.121,0,0,0,0,0,4.1049,4.1087,4.1075,4.1079,4.1094,4.1112,4.1114,4.1096,4.1075,4.1091,4.1083,4.1061,4.1097,4.1078,4.1082,4.1105,4.1143,4.1147,4.1151,4.1193,4.1202,4.121,0,0,0,0,0,0,4.1096,4.1086,4.1072,4.1111,4.1112,4.1105,4.1126,4.1108,4.1115,4.1111,4.1088,4.1088,4.1117,4.1114,4.1093,4.1146,4.1116,4.1121,4.1146,4.1155,4.1162,4.1161,4.1054,0,0,0,0,0,4.1111,4.1128,4.1118,4.1153,4.1154,4.114,4.1147,4.1134,4.1134,4.1135,4.1129,4.1129,4.114,4.1148,4.1158,4.1196,4.1192,4.1214,4.1221,4.1227,4.123,4.1246,4.1254,4.1166,4.1166,4.1166,0,0,4.1142,4.1139,4.1151,4.1162,4.1162,4.1177,4.1141,4.116,4.1171,4.1138,4.1162,4.1157,4.1156,4.1188,4.1201,4.1186,4.1254,4.1232,4.1236,4.1237,4.1251,4.1259,4.1266,4.1168,4.1168,4.1167,0,0,4.1206,4.1207,4.1233,4.1233,4.1233,4.1223,4.1229,4.1224,4.1219,4.1243,4.1217,4.1229,4.125,4.1249,4.1251,4.1311,4.129,4.1315,4.1351,4.1367,4.1373,4.1379,4.1397,4.1404,4.1319,4.1319,4.1319,0,4.1244,4.1268,4.1249,4.1269,4.1273,4.1244,4.1269,4.127,4.1273,4.1276,4.1259,4.1281,4.1279,4.1307,4.1322,4.1326,4.133,4.1314,4.1374,4.138,4.1385,4.1402,4.1409,4.1322,4.1322,4.1321,4.1321,0,4.1312,4.1329,4.1351,4.1353,4.136,4.1383,4.1366,4.1375,4.136,4.1351,4.1373,4.1369,4.1376,4.1382,4.1369,4.1408,4.1398,4.1378,4.1347,4.1397,4.1411,4.1418,4.1326,4.1325,4.1324,4.1324,0,0,4.1406,4.1397,4.1404,4.1403,4.14,4.1411,4.1432,4.1438,4.1444,4.1447,4.146,4.1477,4.1457,4.146,4.1446,4.146,4.1503,4.1438,4.1437,4.1447,4.1541,4.1554,4.1562,4.1489,4.1491,4.1492,4.154,0,4.1465,4.1499,4.1481,4.1517,4.1529,4.15,4.1517,4.1516,4.1507,4.1515,4.1506,4.1516,4.1492,4.1492,4.1505,4.1495,4.1521,4.1492,4.1499,4.15,4.1498,4.157,4.1585,4.163,4.1546,4.1547,4.1548,0,4.1538,4.1542,4.1579,4.1569,4.1574,4.1589,4.1591,4.1601,4.1597,4.159,4.1591,4.1573,4.1589,4.156,4.158,4.1561,4.1563,4.1558,4.1559,4.1557,4.1525,4.1567,4.1645,4.1651,4.1558,4.1557,4.1556,0,4.1598,4.1613,4.1636,4.1636,4.1627,4.1637,4.1634,4.1629,4.1632,4.1634,4.1636,4.164,4.1641,4.1644,4.1625,4.1607,4.1647,4.1617,4.1638,4.1639,4.1646,4.1646,4.1723,4.1653,4.1653,4.1653,4.1653,0,4.1664,4.1686,4.1662,4.1675,4.1698,4.1678,4.1701,4.1694,4.1689,4.1699,4.1675,4.1685,4.1662,4.1668,4.1654,4.1671,4.1673,4.1665,4.1661,4.1666,4.1666,4.1665,4.166,4.1655,4.1654,4.1654,4.1653,0,4.1734,4.1719,4.1741,4.1729,4.1727,4.1744,4.1733,4.1744,4.1733,4.1746,4.1748,4.1731,4.1737,4.1719,4.1724,4.1714,4.1737,4.1729,4.1738,4.1734,4.1755,4.1752,4.1832,4.184,4.1768,4.1769,4.1769,0,4.1775,4.1792,4.1781,4.1786,4.1783,4.1792,4.1795,4.1775,4.1779,4.1774,4.1784,4.1789,4.1791,4.1802,4.1788,4.179,4.178,4.1808,4.178,4.1783,4.1776,4.1774,4.1774,4.1813,4.1814,4.1815,4.1815,0,4.1849,4.184,4.1846,4.1848,4.1852,4.1853,4.1852,4.1857,4.1834,4.184,4.1845,4.1847,4.185,4.1853,4.1852,4.1846,4.1826,4.1824,4.1828,4.1832,4.1836,4.1831,4.175,4.1822,4.1821,4.1821,4.182,4.182,4.1904,4.1915,4.1909,4.1915,4.1911,4.191,4.1919,4.1908,4.1913,4.1914,4.1901,4.1909,4.1901,4.1897,4.1893,4.1898,4.1885,4.1892,4.1893,4.1894,4.1896,4.1837,4.1898,4.1898,4.1897,4.1897,4.1897,0,4.1973,4.1967,4.1973,4.1971,4.1975,4.1957,4.1954,4.1957,4.1964,4.196,4.1962,4.1966,4.1969,4.1955,4.1955,4.1961,4.1951,4.1961,4.1959,4.1957,4.191,4.1905,4.1969,4.1969,4.1969,4.1969,4.1969,4.1969,4.201,4.2027,4.2017,4.2031,4.2024,4.2032,4.2031,4.2028,4.2024,4.2031,4.2032,4.2024,4.2014,4.2013,4.2013,4.2009,4.2008,4.2021,4.2013,4.1968,4.1961,4.1955,4.1949,4.2022,4.2022,4.206,4.206,4.2061]}]]